FENGYUN 1C DEB

Satellite information

Favourite Embed

Satellite Type and Status

DEBRISIN ORBIT

Key statistics

Satellite FENGYUN 1C DEB at a glance.

Uptime

9666

Days in orbit

Revolutions

≈ 13.9

Per day

Orbit

SSO

Sun Synchronous Orbit

Inclination

99.9

Latest

Satellite identification and parameters

Extended collection of information and parameters for FENGYUN 1C DEB.

Object identification

Identified? True

Debris? True

Object name: FENGYUN 1C DEB

International designator: 1999-025DYD

Object number (NORAD): 36659

Object ID (CCSDS): 36659

Country: PEOPLES REPUBLIC OF CHINA (PRC)

Current information (Y/N): Y

RCS size: SMALL

Orbital parameters

Period: 103.803 minutes

Inclination: 99.856 deg

SMA: 7316.433 km

Apoapsis: 1037.294 km

Periapsis: 839.302 km

RAAN: 289.6491 deg

Eccentricy: 0.0135306

Argument of periapsis: 225.9667 deg

Mean anomaly: 133.0277 deg

Mean motion: 13.87246537 rev/day

Mean motion (dot): 0.00000895 rev/day2

B* drag term: 0.00074738 1/REarth

Two-line elements (TLE)

Creation date: Oct. 17, 2025, 6:56 a.m.

Reference frame: TEME

Reference center: EARTH

Epoch: Oct. 16, 2025, 6:21 a.m. UTC

TLE line 0: 0 FENGYUN 1C DEB

TLE line 1: 1 36659U 99025DYD 25289.26489277 .00000895 00000-0 74738-3 0 9999

TLE line 2: 2 36659 99.8560 289.6491 0135306 225.9667 133.0277 13.87246537596281

Live tracking on map

Real-time ground track for satellite FENGYUN 1C DEB.

In-orbit conjunctions

A list of the most updated potential collisions computed for object FENGYUN 1C DEB.

Target Orbit TCA Probability of collision Miss distance Type
METEOR 1-5 DEB LEO 2025-05-17 20:17:45 0.000162474 133.0 (m) DEBRIS
OBJECT D SSO 2025-04-23 23:10:19 0.0001600474 829.0 (m) UNKNOWN

Associated space launch

Chinese polar orbiting meteorological satellite

FENGYUN 1C DEB was lifted into orbit during the mission ‘Long March 4B | Feng Yun 1C’, on board a Long March 4B space rocket.

The launch took place on May 10, 1999, 1:33 a.m. from Launch Complex 7.

For more information about the launch, click the button.

Launch to space Long March 4B | Feng Yun 1C
Long March 4B | Feng Yun 1C

Agency: N/A

Status: Launch Successful

Launch date: May 10, 1999, 1:33 a.m. UTC

Rocket: Long March 4B

Launch pad: Launch Complex 7

Location: Taiyuan Satellite Launch Center, People's Republic of China

...

Latest news about this satellite

There are no fresh news available about this satellite. Check back as we update our databases every day.


Newsletter sign-up

Weekly statistics, charts and insights to help you stay on top of the space industry.